Location: West Cummington
(42.4920°N, 72.9680°W)
Time: 19:17:26
(UTC-05:00)

Daily predictions for brighter satellites

Satellite Brightness Start Highest point End
(mag) Time Altitude Azimuth Time Altitude Azimuth Time Altitude Azimuth
NOAA 12 4.4 17:53:52 10° SE 17:58:56 48° ENE 18:04:04 10° N
Cosmos 1975 Rocket 3.9 17:58:57 10° NNW 18:03:10 55° W 18:07:23 10° S
SKYMED 2 3.6 18:02:36 10° NNE 18:06:59 89° W 18:11:19 10° SSW
COSMOS 2428 3.9 18:03:20 10° N 18:07:51 24° NE 18:12:21 10° ESE
METEOR-M 4.2 18:04:21 10° SSE 18:09:35 59° ENE 18:14:51 10° N
Cosmos 2237 Rocket 4.2 18:10:31 10° NNE 18:11:20 10° NE 18:12:08 10° NE
Cosmos 1536 4.1 18:12:42 10° SE 18:15:35 19° E 18:18:28 10° NE
H-2A R/B 4.1 18:13:42 10° ESE 18:16:19 18° ENE 18:18:57 10° NNE
Okean 1 3.3 18:15:21 10° N 18:19:26 83° E 18:23:30 10° S
Cosmos 1812 3.4 18:16:24 10° NNW 18:20:12 59° W 18:24:00 10° S
Cosmos 1633 3.0 18:17:49 10° SSE 18:21:18 41° E 18:24:48 10° NNE
Cosmos 1536 Rocket 3.5 18:17:40 10° N 18:22:09 72° E 18:26:37 10° SSE
Cosmos 1818 3.7 18:20:21 10° SW 18:25:48 85° WNW 18:31:19 10° NNE
Cosmos 407 Rocket 3.9 18:21:55 10° SSW 18:27:09 71° WNW 18:32:29 10° NNE
Cosmos 2360 Rocket 2.2 18:22:06 10° NNW 18:27:44 64° ENE 18:33:20 10° SE
Cosmos 2219 Rocket 3.5 18:25:02 10° N 18:29:04 20° NE 18:31:48 14° E
Cosmos 2219 4.1 18:25:03 10° SSE 18:29:51 28° ESE 18:34:40 10° NE
Cosmos 676 Rocket 4.0 18:26:29 10° SSW 18:31:40 89° ESE 18:36:56 10° NNE
Cosmos 1570 Rocket 4.4 18:32:49 10° N 18:37:47 42° ENE 18:42:44 10° SE
Meteor 1-11 Rocket 3.8 18:33:30 10° S 18:39:10 59° E 18:44:59 10° NNE
DELTA 2 R/B (1) 4.3 18:40:49 10° W 18:46:10 47° SSW 18:50:44 14° SE
Cosmos 1140 Rocket 3.4 18:41:39 10° SSW 18:46:45 74° ESE 18:51:55 10° NNE
Resurs 01 Rocket 1.7 18:45:16 10° SSE 18:49:33 55° ENE 18:53:53 10° N
Cosmos 1602 3.7 18:45:49 10° S 18:49:42 89° WNW 18:53:37 10° N
Cosmos 1300 Rocket 3.5 18:46:48 10° S 18:51:12 86° ESE 18:55:40 10° N
Cosmos 614 Rocket 3.8 18:49:36 10° S 18:54:37 66° ESE 18:59:40 10° NNE
Cosmos 1833 4.4 18:51:06 10° SSW 18:56:48 77° WNW 19:02:29 10° NNE
Abrixas rocket 3.5 18:54:05 10° SSW 18:56:51 25° SE 18:56:51 25° SE
ALOS 2.2 18:52:52 10° SSE 18:57:33 88° ENE 19:02:15 10° NNW
Cosmos 2181 Rocket 4.1 18:51:53 10° N 18:58:09 83° W 19:04:29 10° S
Spot 2 Rocket 3.4 18:56:53 10° SSE 19:01:54 73° ENE 19:06:59 10° N
USA 229 DEB 4.0 18:55:47 10° NNW 19:02:43 52° NE 19:07:03 24° ESE
USA 229 4.0 18:55:53 10° NNW 19:02:49 52° NE 19:07:06 24° ESE
Cosmos 2333 Rocket 3.1 18:57:55 10° N 19:02:52 29° NE 19:04:11 26° ENE
SL-16 R/B 4.5 18:59:28 10° NW 19:04:05 26° WSW 19:08:41 10° SSW
Cosmos 2208 Rocket 4.0 18:59:22 10° NNW 19:04:49 67° ENE 19:09:51 12° SSE
Helios 1A 3.3 19:04:17 32° ESE 19:05:38 43° ENE 19:09:35 10° N
Cosmos 1340 4.1 19:03:01 10° NNW 19:06:35 40° W 19:10:07 10° SSW
NOSS 8 (E) 4.5 19:03:42 10° SW 19:07:08 84° WNW 19:09:18 23° NNE
Resurs 1-3 3.5 19:03:04 10° SSE 19:07:25 73° ENE 19:11:49 10° N
Cosmos 2074 Rocket 3.9 19:07:30 10° S 19:13:41 68° E 19:19:56 10° NNE
Cosmos 1850 Rocket 3.9 19:08:36 10° SSW 19:13:53 82° ESE 19:19:15 10° NNE
Cosmos 2184 Rocket 3.9 19:10:23 10° S 19:16:39 69° E 19:22:53 10° NNE
Helios 1B rocket 2.7 19:13:45 10° NNE 19:18:13 47° ESE 19:21:49 10° S
Envisat 3.6 19:18:30 34° ENE 19:18:30 34° ENE 19:22:55 10° N
NOSS 8 (H) 4.4 19:17:52 10° SW 19:21:14 83° NW 19:21:51 57° NNE
Intercosmos 24 4.3 19:17:08 10° S 19:21:20 76° E 19:27:24 10° N
USA 186 4.3 19:24:36 12° N 19:24:36 12° N 19:24:53 10° N
Okean 2 3.4 19:18:01 10° N 19:22:01 54° ENE 19:22:01 54° ENE
SAR-Lupe-1 4.0 19:26:19 73° NNE 19:26:19 73° NNE 19:29:40 10° N
Okean 1 Rocket 3.9 19:21:41 10° SSW 19:26:04 53° WNW 19:30:29 10° N
Meteor 1-5 Rocket 4.2 19:20:54 10° S 19:26:52 77° E 19:32:47 10° NNE
Genesis I 3.4 19:23:10 10° NW 19:27:05 68° WSW 19:28:05 46° S
FENGYUN 3A 4.4 19:22:15 10° S 19:27:32 54° W 19:32:51 10° NNW
Cosmos 1892 Rocket 4.1 19:26:02 10° N 19:29:15 41° NE 19:29:15 41° NE
SAR-Lupe-4 3.6 19:30:26 62° SSW 19:30:56 76° WSW 19:34:31 10° NNW
NOSS 3-1 (C) 4.4 19:27:54 10° NNW 19:34:56 43° NE 19:36:56 37° ENE
Nadezhda 3 Rocket 4.1 19:29:44 10° N 19:35:43 51° ENE 19:36:38 47° ESE
Gbstr 26 Del rocket 2.9 19:33:05 10° WSW 19:36:49 61° NNW 19:36:52 60° NNW
GEOS 3 Rocket 4.1 19:39:42 16° NNE 19:43:49 61° NW 19:49:00 10° SW
Cosmos 2285 Rocket 3.9 19:38:05 10° NNW 19:44:34 90° ENE 19:47:50 31° SSE
CZ-2D R/B 4.1 19:43:32 30° SSW 19:45:02 48° W 19:48:45 10° NNW
Cosmos 1025 Rocket 3.7 19:41:01 10° NNW 19:45:18 54° W 19:48:41 16° SSW
Cosmos 2154 Rocket 3.9 19:39:23 10° S 19:45:37 61° E 19:51:52 10° NNE
Cosmos 405 Rocket 3.9 19:42:32 10° N 19:45:01 35° N 19:45:01 35° N
GPS 2-04 Rocket1 4.5 19:43:54 10° SW 19:46:29 25° SSW 19:46:29 25° SSW
Meteor 2-13 Rocket 4.3 19:45:29 10° S 19:51:32 86° E 19:57:40 10° N
COSMOS 2428 3.2 19:46:56 10° NNW 19:52:32 58° WSW 19:55:38 26° S
Cosmos 2333 4.5 19:48:15 10° NNW 19:53:56 66° WSW 19:56:21 35° S
Cosmos 2237 Rocket 2.6 19:51:12 10° NNW 19:55:53 48° NNE 19:55:53 48° NNE
NOSS 0 Rocket 3.7 20:02:08 10° NNW 20:08:20 87° ENE 20:08:24 86° E
Cosmos 2219 Rocket 2.3 20:08:00 10° NNW 20:13:36 70° WSW 20:13:36 70° WSW
Cosmos 2219 4.2 20:08:17 10° SW 20:13:46 44° WNW 20:19:15 10° NNE
SL-16 R/B 3.8 20:24:51 10° NNW 20:27:20 25° N 20:27:20 25° N
Cosmos 2333 Rocket 3.3 20:41:51 10° NW 20:46:14 42° WNW 20:46:14 42° WNW
NOSS 3-1 (A) 4.4 20:59:04 10° NW 21:04:58 60° NW 21:04:58 60° NW
ATLAS 2AS CENTAUR R/B 4.1 21:05:05 10° NNW 21:10:18 34° N 21:10:18 34° N
